Regional Weather Roundup
Issued by NWS Burlington, VT

Home | Current Version | Previous Version | Text Only | Print | Product List | Glossary On
Versions: 1 2 3 4 5 6 7 8 9 10 11 12 13 14 15 16 17 18 19 20 21 22 23 24 25 26 27 28 29 30 31 32 33 34 35 36 37 38 39 40 41 42 43 44 45 46 47 48 49 50
000
ASUS41 KBTV 271710
RWRBTV
VERMONT REGIONAL WEATHER ROUNDUP
NATIONAL WEATHER SERVICE BURLINGTON VT
100 PM EDT WED AUG 27 2014

NOTE: "FAIR" INDICATES FEW OR NO CLOUDS BELOW 12,000 FEET WITH NO
SIGNIFICANT WEATHER AND/OR OBSTRUCTIONS TO VISIBILITY.

* THESE REPORTS ARE NOT UNDER NWS QUALITY CONTROL AND/OR DO NOT
  REPORT WEATHER SUCH AS PRECIPITATION AND FOG.

VTZ001>019-271800-
_____VERMONT_____


CITY           SKY/WX    TMP DP  RH WIND       PRES   REMARKS
BURLINGTON     MOSUNNY   81  64  56 NW7       29.91F
MONTPELIER     PTSUNNY   77  65  66 VRB5      29.97F
MORRISVILLE    MOSUNNY   81  61  50 NW6       29.93F
ST. JOHNSBURY*   N/A     79  62  56 MISG      29.89F
MIDDLEBURY*    PTSUNNY   83  67  58 SW5       29.91F
RUTLAND*       CLOUDY    79  66  65 W8        29.94S
SPRINGFIELD    PTSUNNY   81  67  62 SE6       29.92F
HIGHGATE*      FAIR      78  62  58 NW7       29.92F
NEWPORT*       FAIR      77  59  54 W13G18    29.94F
BENNINGTON     MOSUNNY   82  68  62 NW7       29.96F
SUTTON*          N/A     77 N/A N/A MISG        N/A

_____LAKE CHAMPLAIN_____


CITY           SKY/WX    TMP DP  RH WIND       PRES   REMARKS
COLCHESTER RF*   N/A     75  64  69 NE3         N/A
DIAMOND ISL*     N/A     77  66  69 NW2         N/A

$$

NYZ007-026>031-035-052-083-271800-
_____NORTHERN NEW YORK_____


CITY           SKY/WX    TMP DP  RH WIND       PRES   REMARKS
PLATTSBURGH    PTSUNNY   79  63  57 E7        29.90F
SARANAC LAKE   PTSUNNY   75  59  57 W7G18     29.97F
MASSENA        MOSUNNY   75  62  64 SW5       29.95F
OGDENSBURG*    MOSUNNY   79  63  57 NW5       29.96F
POTSDAM*         N/A     73  64  73 NW8       29.96F
WATERTOWN      SUNNY     74  60  61 SW9       29.98F
FT DRUM        SUNNY     76  54  45 W9        29.98F
ALBANY         CLOUDY    81  67  62 S5        29.95F
GLENS FALLS    PTSUNNY   80  68  66 S12       29.92F

$$
NHZ002-005-011-271800-
_____NEW HAMPSHIRE_____


CITY           SKY/WX    TMP DP  RH WIND       PRES   REMARKS
LEBANON        MOSUNNY   85  64  49 VRB6      29.90F
KEENE          MOSUNNY   79  63  57 W9        29.94F
MT WASHINGTON  FOG       52  52 100 W28         N/A  VSB 1/16
PLYMOUTH       FAIR      82  69  65 NW7       29.89F
WHITEFIELD     PTSUNNY   81  62  52 W14G20    29.92F

$$

_____REGIONAL QUEBEC LOCATIONS_____


CITY           SKY/WX    TMP DP  RH WIND       PRES   REMARKS
MONTREAL       PTSUNNY   77  59  53 W10       29.92F
SHERBROOKE     CLOUDY    75  61  60 MISG      29.91S

_____REGIONAL ONTARIO LOCATIONS_____


CITY           SKY/WX    TMP DP  RH WIND       PRES   REMARKS
OTTAWA         MOSUNNY   73  57  56 W8        29.96F

______KEY______
VSB  - VISIBILITY IN MILES
WCI  - WIND CHILL INDEX
HX   - HEAT INDEX
$$
NNNN



USA.gov is the U.S. government's official web portal to all federal, state and local government web resources and services.